[[{"header":{"parameterUnit":"m.s-1","parameterCategory":2,"la1":30.2991,"la2":30.254,"lo1":-89.0895,"lo2":-89.0444,"dy":0.0017,"dx":0.0017,"nx":28,"ny":28,"refTime":"2024-07-09T03:00:00:Z","depth":"0","parameterNumber":2,"parameterNumberName":"U-component_of_CURRENTS"},"data":[0,0,0,0,0,0,0,0,0,0,0,0,0,0,0,0,0,0,0,0,0,0,0,0,0,0,0,0,0,0,0,0,0,0,0,0,0,0,0,0,0,0,0,0,0,0,0,0,0,0,0,0,0,0,0,0,0,0,0.1881,0.1884,0,0.2111,0.2113,0.2116,0.2208,0.2208,0.2207,0.2206,0.234,0.2344,0.2348,0,0,0,0,0,0,0,0,0,0,0,0,0,0.1877,0.1874,0.1881,0.1884,0.1887,0.211,0.2113,0.2117,0.2208,0.2208,0.2207,0.2206,0.2339,0.2344,0.2349,0,0,0,0,0,0,0,0,0,0,0,0,0,0.1969,0.1874,0.188,0.1959,0.1968,0.211,0.2114,0.2117,0.2208,0.2208,0.2207,0.2206,0.2337,0.2343,0.2349,0.2406,0,0,0.2368,0.2371,0,0,0,0,0,0,0,0,0.1964,0.1969,0.1945,0.1954,0.1964,0.2129,0.2162,0.2209,0.2209,0.2118,0.2206,0.2205,0.2261,0.2273,0.2321,0.2412,0.2418,0.2369,0.2372,0.2375,0.2377,0,0,0,0,0,0,0,0.1957,0.1962,0.1973,0.1948,0.196,0.2104,0.2113,0.2173,0.219,0.2126,0.2133,0.2158,0.2266,0.2315,0.2324,0.242,0.2369,0.2374,0.2378,0.238,0.254,0.2541,0,0,0,0,0,0,0.1909,0.1953,0.1965,0.1979,0.1961,0.2103,0.2114,0.2078,0.2192,0.2209,0.2158,0.2161,0.2305,0.2317,0.2329,0.2402,0.2375,0.2381,0.2384,0.254,0.254,0.2541,0,0,0,0,0,0,0.1907,0.1905,0.1956,0.1976,0.1992,0.2102,0.2063,0.2083,0.2134,0.2218,0.2233,0.2188,0.2304,0.232,0.2379,0.2407,0.2384,0.2389,0.2539,0.254,0.254,0.2547,0,0,0,0,0,0,0.1904,0.1901,0.1872,0.197,0.1989,0.2057,0.2064,0.2088,0.215,0.2156,0.2249,0.2261,0.2305,0.2369,0.2385,0.2415,0.2394,0.2538,0.2539,0.254,0.2546,0.2548,0.255,0,0,0,0,0,0.1902,0.1876,0.1868,0.1871,0.1938,0.2059,0.2085,0.2163,0.2152,0.2199,0.2234,0.2258,0.2386,0.2375,0.2393,0.2426,0.2538,0.2539,0.254,0.2545,0.2548,0.255,0,0,0,0,0,0,0.186,0.1885,0.1879,0.1855,0.1953,0.2075,0.2128,0.2161,0.2231,0.2223,0.2274,0.2291,0.2351,0.2382,0.2368,0.2471,0.2463,0.2468,0.2461,0.2463,0.2465,0.2478,0.2399,0,0,0,0,0,0.1829,0.1812,0.1884,0.1875,0.1917,0.2014,0.2071,0.2122,0.2194,0.2226,0.2283,0.2329,0.2375,0.2409,0.2463,0.2527,0.2549,0.2555,0.2556,0.2558,0.2578,0.2621,0.2629,0.2545,0.2545,0.2545,0,0,0.1808,0.1825,0.1812,0.1867,0.1943,0.2036,0.2048,0.2139,0.2206,0.2226,0.232,0.2342,0.239,0.246,0.2489,0.2489,0.2589,0.2559,0.256,0.2581,0.2623,0.2632,0.2639,0.2546,0.2545,0.2545,0,0,0.1814,0.1777,0.1794,0.1874,0.1981,0.2052,0.2071,0.2189,0.2229,0.2315,0.2328,0.2363,0.2458,0.2498,0.2524,0.2566,0.2592,0.2575,0.2608,0.2648,0.2656,0.2663,0.2686,0.2695,0.2581,0.2581,0.2581,0,0.1793,0.1802,0.1834,0.1909,0.1973,0.2053,0.213,0.2205,0.2324,0.2347,0.2344,0.2451,0.2482,0.2552,0.2562,0.2574,0.2592,0.2596,0.2651,0.2659,0.2666,0.2688,0.2698,0.2581,0.2581,0.2581,0.2581,0,0.1844,0.1863,0.1899,0.1991,0.2073,0.2155,0.2256,0.2322,0.2356,0.2417,0.2481,0.2523,0.2586,0.259,0.2594,0.2657,0.265,0.2643,0.2647,0.2675,0.2696,0.2706,0.2582,0.2582,0.2581,0.2581,0,0,0.1764,0.1896,0.1908,0.1963,0.2112,0.2186,0.2288,0.2396,0.2441,0.2528,0.2582,0.2645,0.2651,0.268,0.2685,0.2712,0.276,0.2699,0.2701,0.2723,0.2841,0.2765,0.2768,0.2761,0.2763,0.2765,0.2829,0,0.1799,0.1905,0.1974,0.2103,0.2175,0.227,0.2359,0.2458,0.2524,0.2602,0.2634,0.2692,0.2694,0.2702,0.2742,0.2755,0.279,0.2743,0.281,0.2813,0.2743,0.2779,0.2709,0.2754,0.2839,0.2841,0.2842,0,0.1835,0.1898,0.1993,0.2131,0.2169,0.2249,0.237,0.2468,0.2586,0.2626,0.27,0.2739,0.2809,0.2784,0.2873,0.2842,0.2854,0.2856,0.2858,0.2799,0.2756,0.2743,0.277,0.2749,0.2858,0.2857,0.2856,0,0.1768,0.1917,0.197,0.2026,0.2194,0.2229,0.232,0.2448,0.2502,0.2635,0.266,0.2786,0.2805,0.288,0.2915,0.2897,0.2988,0.2965,0.2914,0.2908,0.2869,0.2855,0.2888,0.3029,0.3029,0.3028,0.3028,0,0.1775,0.1835,0.1928,0.197,0.2037,0.2171,0.224,0.2351,0.2459,0.252,0.2653,0.2693,0.2824,0.2894,0.2944,0.2969,0.3027,0.2936,0.2928,0.2864,0.285,0.2846,0.2831,0.3031,0.303,0.303,0.3029,0,0.1728,0.1786,0.1862,0.1979,0.2007,0.2055,0.2172,0.2232,0.2339,0.2418,0.2452,0.2613,0.2706,0.2828,0.2932,0.2962,0.2947,0.3007,0.2915,0.2894,0.2793,0.278,0.2673,0.2596,0.2962,0.2961,0.296,0,0.1736,0.175,0.1827,0.1855,0.1903,0.197,0.2024,0.2152,0.2215,0.2355,0.2389,0.2495,0.2591,0.2736,0.2812,0.2914,0.2863,0.2889,0.2837,0.2792,0.2774,0.2647,0.2581,0.2791,0.2788,0.2786,0.2785,0,0.1761,0.1747,0.1801,0.1817,0.1852,0.1901,0.198,0.1994,0.2148,0.2207,0.2312,0.239,0.2509,0.2599,0.2714,0.2761,0.2767,0.2844,0.2842,0.2681,0.2505,0.2425,0.2735,0.2767,0.2769,0.277,0.2771,0.2772,0.1794,0.1789,0.1814,0.1829,0.1847,0.186,0.1871,0.1953,0.202,0.2124,0.2219,0.2317,0.2463,0.2601,0.2609,0.2615,0.2573,0.2622,0.2624,0.2509,0.2386,0.2636,0.2621,0.2622,0.2623,0.2624,0.2624,0,0.188,0.1848,0.1848,0.1848,0.1824,0.1845,0.1876,0.1875,0.1923,0.2039,0.2128,0.2292,0.2373,0.2449,0.2529,0.2484,0.2343,0.2445,0.23,0.2256,0.2547,0.2493,0.2395,0.2395,0.2395,0.2395,0.2395,0.2395,0.1949,0.1941,0.189,0.1842,0.1816,0.1766,0.1764,0.1767,0.1822,0.191,0.2005,0.2116,0.2345,0.2504,0.2498,0.2425,0.2269,0.2146,0.213,0.2416,0.2434,0.2451,0.2399,0.2283,0.2283,0.1755,0.1752,0.1749]},{"header":{"parameterUnit":"m.s-1","parameterCategory":2,"la1":30.2991,"la2":30.254,"lo1":-89.0895,"lo2":-89.0444,"dy":0.0017,"dx":0.0017,"nx":28,"ny":28,"refTime":"2024-07-09T03:00:00:Z","depth":"0","parameterNumber":3,"parameterNumberName":"V-component_of_CURRENTS"},"data":[0,0,0,0,0,0,0,0,0,0,0,0,0,0,0,0,0,0,0,0,0,0,0,0,0,0,0,0,0,0,0,0,0,0,0,0,0,0,0,0,0,0,0,0,0,0,0,0,0,0,0,0,0,0,0,0,0,0,-0.0007,-0.0009,0,-0.0186,-0.0188,-0.019,-0.0275,-0.0275,-0.0274,-0.0274,-0.0512,-0.0519,-0.0525,0,0,0,0,0,0,0,0,0,0,0,0,0,0.0061,0.0061,-0.0007,-0.0009,-0.0011,-0.0185,-0.0188,-0.0191,-0.0275,-0.0275,-0.0274,-0.0274,-0.051,-0.0518,-0.0526,0,0,0,0,0,0,0,0,0,0,0,0,0,-0.0032,0.0061,-0.0007,-0.007,-0.0078,-0.0185,-0.0188,-0.0192,-0.0276,-0.0275,-0.0274,-0.0273,-0.0507,-0.0517,-0.0527,-0.0605,0,0,-0.0558,-0.0563,0,0,0,0,0,0,0,0,-0.0026,-0.0035,-0.0059,-0.0066,-0.0074,-0.0203,-0.0251,-0.0332,-0.0276,-0.0205,-0.0274,-0.0273,-0.0412,-0.043,-0.0471,-0.0617,-0.0627,-0.0559,-0.0565,-0.057,-0.0573,0,0,0,0,0,0,0,-0.002,-0.0029,-0.0083,-0.0061,-0.007,-0.0158,-0.0169,-0.0268,-0.0315,-0.0211,-0.0217,-0.023,-0.0417,-0.0461,-0.0477,-0.063,-0.0559,-0.0568,-0.0574,-0.0578,-0.0806,-0.0806,0,0,0,0,0,0,0.0021,-0.0022,-0.0077,-0.0087,-0.0043,-0.0159,-0.0172,-0.0167,-0.0313,-0.0333,-0.023,-0.0233,-0.0444,-0.0465,-0.0486,-0.0547,-0.057,-0.0579,-0.0585,-0.0806,-0.0806,-0.0806,0,0,0,0,0,0,0.0024,0.0019,-0.0069,-0.0056,-0.0073,-0.0159,-0.0154,-0.017,-0.0211,-0.0326,-0.0348,-0.0252,-0.0444,-0.0471,-0.0559,-0.0558,-0.0584,-0.0593,-0.0806,-0.0806,-0.0806,-0.0695,0,0,0,0,0,0,0.0027,0.0021,0.0031,-0.0052,-0.0072,-0.013,-0.0155,-0.0174,-0.0218,-0.0223,-0.0352,-0.0374,-0.0445,-0.0543,-0.0569,-0.0572,-0.0601,-0.0806,-0.0806,-0.0806,-0.0699,-0.0691,-0.0684,0,0,0,0,0,0.003,0.0043,0.0033,0.0025,-0.0052,-0.013,-0.015,-0.0213,-0.0219,-0.0245,-0.0315,-0.0369,-0.056,-0.0552,-0.0583,-0.0588,-0.0807,-0.0806,-0.0806,-0.0702,-0.0692,-0.0685,0,0,0,0,0,0,0.0077,0.0034,0.0021,0.0022,-0.0046,-0.0143,-0.0168,-0.0208,-0.0286,-0.0285,-0.0384,-0.0412,-0.0484,-0.0554,-0.0542,-0.0651,-0.0688,-0.0693,-0.0598,-0.059,-0.0583,-0.0534,-0.061,0,0,0,0,0,0.0096,0.0097,0.0029,0.0027,0.0002,-0.0081,-0.0119,-0.0162,-0.0237,-0.027,-0.0358,-0.044,-0.0511,-0.0561,-0.0643,-0.0718,-0.0739,-0.0737,-0.073,-0.0723,-0.0703,-0.0721,-0.0713,-0.0806,-0.0806,-0.0806,0,0,0.0114,0.0091,0.009,0.0037,-0.0016,-0.0055,-0.0104,-0.0155,-0.0185,-0.0286,-0.0355,-0.0426,-0.0524,-0.0593,-0.0632,-0.0652,-0.0707,-0.0723,-0.0716,-0.07,-0.072,-0.0711,-0.0702,-0.0805,-0.0806,-0.0806,0,0,0.0142,0.0131,0.0134,0.0087,0.0021,-0.0035,-0.0042,-0.0137,-0.0174,-0.0252,-0.0311,-0.0371,-0.0512,-0.0563,-0.0608,-0.0615,-0.0665,-0.0648,-0.0582,-0.06,-0.0591,-0.0584,-0.0587,-0.0581,-0.0647,-0.0647,-0.0647,0,0.0162,0.0171,0.0116,0.01,0.008,-0.0015,-0.0023,-0.0091,-0.0202,-0.0216,-0.0257,-0.0402,-0.0489,-0.0539,-0.0536,-0.0597,-0.0608,-0.0604,-0.0586,-0.058,-0.0575,-0.058,-0.0574,-0.0642,-0.0642,-0.0643,-0.0643,0,0.0188,0.019,0.0185,0.0147,0.0108,0.0082,0.0001,-0.0043,-0.0094,-0.0154,-0.0216,-0.0329,-0.04,-0.0443,-0.0498,-0.0504,-0.0523,-0.0568,-0.0597,-0.0558,-0.0567,-0.0563,-0.0634,-0.0636,-0.0638,-0.0639,0,0,0.024,0.0214,0.0211,0.0221,0.0143,0.0118,0.0079,0.0027,0.0033,-0.0091,-0.0091,-0.0218,-0.0262,-0.0313,-0.039,-0.0416,-0.0393,-0.0466,-0.047,-0.0448,-0.0412,-0.0391,-0.0386,-0.043,-0.0429,-0.0428,-0.0428,0,0.0276,0.0293,0.0262,0.0268,0.027,0.0204,0.0189,0.0132,0.0071,0.0032,-0.0074,-0.0119,-0.0221,-0.0235,-0.0281,-0.037,-0.0381,-0.0388,-0.0471,-0.0473,-0.0443,-0.038,-0.037,-0.0365,-0.0425,-0.0424,-0.0424,0,0.0308,0.0322,0.0355,0.0371,0.0371,0.0362,0.0361,0.033,0.0255,0.0211,0.014,0.0052,-0.0023,-0.0104,-0.0221,-0.0219,-0.029,-0.036,-0.0363,-0.0376,-0.0445,-0.042,-0.0357,-0.0505,-0.0419,-0.0419,-0.042,0,0.0378,0.0387,0.0434,0.043,0.0421,0.0448,0.0443,0.0397,0.04,0.0331,0.0329,0.0207,0.0163,0.0042,-0.0123,-0.0158,-0.0236,-0.0309,-0.0353,-0.0353,-0.0376,-0.0378,-0.0447,-0.0349,-0.0349,-0.0349,-0.0349,0,0.0428,0.0461,0.0481,0.0501,0.0572,0.0545,0.0606,0.0575,0.0558,0.0574,0.0437,0.0429,0.0204,0.011,-0.0052,-0.0182,-0.0181,-0.031,-0.0341,-0.0337,-0.0336,-0.0494,-0.058,-0.0349,-0.0349,-0.0349,-0.0349,0,0.048,0.049,0.0543,0.0581,0.0602,0.0651,0.0701,0.0738,0.072,0.0738,0.0728,0.0609,0.0493,0.028,0.0092,-0.006,-0.0275,-0.0246,-0.0216,-0.0243,-0.0426,-0.0504,-0.0578,-0.0638,-0.0287,-0.0286,-0.0286,0,0.0506,0.0541,0.0604,0.0648,0.0669,0.0741,0.079,0.0799,0.084,0.0848,0.0867,0.0785,0.0713,0.0449,0.0175,-0.0066,-0.0225,-0.0195,-0.0263,-0.0399,-0.0512,-0.0572,-0.0624,-0.0254,-0.0254,-0.0253,-0.0253,0,0.0556,0.058,0.0629,0.0722,0.0787,0.0862,0.0942,0.1003,0.1023,0.1055,0.1087,0.105,0.0804,0.0555,0.0242,0.0061,-0.0284,-0.0187,-0.0346,-0.0485,-0.0538,-0.0623,-0.0289,-0.0247,-0.0247,-0.0248,-0.0248,-0.0248,0.0592,0.0638,0.0712,0.08,0.088,0.0986,0.1063,0.1147,0.124,0.1312,0.1263,0.1239,0.0894,0.0462,0.0207,-0.0222,-0.024,-0.0372,-0.0453,-0.0498,-0.0562,-0.0192,-0.0177,-0.0178,-0.0178,-0.0178,-0.0178,0,0.0631,0.0694,0.0785,0.0894,0.0991,0.1024,0.1162,0.1243,0.1364,0.1436,0.1464,0.1299,0.0876,0.045,-0.013,-0.0446,-0.0578,-0.0621,-0.0734,-0.0774,-0.0461,-0.0468,-0.0493,-0.0493,-0.0492,-0.0492,-0.0492,-0.0492,0.0656,0.075,0.0803,0.0974,0.1054,0.1184,0.1268,0.1387,0.1479,0.1585,0.1595,0.1581,0.1263,0.0168,-0.0572,-0.0748,-0.0973,-0.1009,-0.1126,-0.0958,-0.0943,-0.0928,-0.0955,-0.1082,-0.1083,-0.141,-0.1413,-0.1416]}],[{"header":{"parameterUnit":"m.s-1","parameterCategory":2,"la1":30.2991,"la2":30.254,"lo1":-89.0895,"lo2":-89.0444,"dy":0.0017,"dx":0.0017,"nx":28,"ny":28,"refTime":"2024-07-09T03:00:00:Z","depth":"2","parameterNumber":2,"parameterNumberName":"U-component_of_CURRENTS"},"data":[0,0,0,0,0,0,0,0,0,0,0,0,0,0,0,0,0,0,0,0,0,0,0,0,0,0,0,0,0,0,0,0,0,0,0,0,0,0,0,0,0,0,0,0,0,0,0,0,0,0,0,0,0,0,0,0,0,0,0.1625,0.1627,0,0.1807,0.1809,0.1811,0.1887,0.1887,0.1886,0.1886,0.1878,0.1878,0.1878,0,0,0,0,0,0,0,0,0,0,0,0,0,0.1578,0.1577,0.1625,0.1627,0.163,0.1807,0.1809,0.1812,0.1887,0.1887,0.1886,0.1886,0.1878,0.1878,0.1878,0,0,0,0,0,0,0,0,0,0,0,0,0,0.1661,0.1577,0.1624,0.169,0.1698,0.1807,0.181,0.1812,0.1887,0.1887,0.1886,0.1886,0.1878,0.1878,0.1878,0.1885,0,0,0.1878,0.1878,0,0,0,0,0,0,0,0,0.1656,0.1662,0.1678,0.1685,0.1694,0.1826,0.1791,0.1828,0.1887,0.1813,0.1886,0.1886,0.1844,0.1847,0.1883,0.1885,0.1884,0.1878,0.1878,0.1878,0.1878,0,0,0,0,0,0,0,0.165,0.1656,0.1695,0.168,0.1691,0.1792,0.18,0.18,0.1823,0.182,0.1826,0.1849,0.1847,0.1883,0.1882,0.1884,0.1878,0.1878,0.1878,0.1878,0.1923,0.1925,0,0,0,0,0,0,0.1618,0.1649,0.169,0.1701,0.1676,0.1792,0.1802,0.1782,0.1828,0.1837,0.1849,0.1852,0.1883,0.1882,0.1882,0.1945,0.1878,0.1878,0.1878,0.1922,0.1924,0.1925,0,0,0,0,0,0,0.1616,0.1618,0.1682,0.1684,0.1699,0.1791,0.177,0.1786,0.1837,0.1853,0.1857,0.1885,0.1882,0.1882,0.1905,0.1942,0.1878,0.1878,0.1921,0.1923,0.1924,0.2035,0,0,0,0,0,0,0.1613,0.1615,0.1601,0.168,0.1698,0.1783,0.1771,0.179,0.1852,0.1858,0.1884,0.1883,0.1882,0.1905,0.1905,0.1941,0.1878,0.1919,0.1922,0.1924,0.2029,0.204,0.2049,0,0,0,0,0,0.161,0.16,0.1598,0.1605,0.1669,0.1786,0.1806,0.1871,0.1854,0.1907,0.1905,0.1883,0.1918,0.1907,0.1906,0.1943,0.1918,0.1921,0.1924,0.2025,0.2038,0.2049,0,0,0,0,0,0,0.1576,0.1609,0.1609,0.1606,0.1702,0.18,0.1845,0.1877,0.1923,0.1911,0.1903,0.1905,0.1944,0.1919,0.1906,0.1959,0.1912,0.1915,0.199,0.2001,0.2011,0.2027,0.1878,0,0,0,0,0,0.1556,0.1553,0.1627,0.1635,0.1672,0.1754,0.1805,0.1857,0.1906,0.1928,0.1939,0.1937,0.1955,0.1957,0.1973,0.1995,0.1989,0.2014,0.2024,0.2032,0.2044,0.2087,0.2102,0.1934,0.1934,0.1934,0,0,0.1546,0.1565,0.1564,0.163,0.1692,0.1776,0.1785,0.1877,0.1947,0.1912,0.198,0.1979,0.197,0.2015,0.2027,0.1997,0.2075,0.2036,0.2044,0.205,0.2091,0.2108,0.2123,0.1936,0.1935,0.1935,0,0,0.1559,0.1541,0.1562,0.1636,0.1738,0.1803,0.1829,0.1932,0.1976,0.2046,0.2034,0.2055,0.2076,0.2093,0.2095,0.2158,0.2134,0.2152,0.2209,0.2252,0.2266,0.2279,0.2287,0.23,0.2147,0.2148,0.2148,0,0.1549,0.1567,0.1602,0.1664,0.1722,0.181,0.1882,0.196,0.206,0.2087,0.2077,0.2126,0.2119,0.217,0.2199,0.2184,0.2191,0.217,0.2267,0.228,0.2291,0.2296,0.2309,0.2153,0.2153,0.2152,0.2151,0,0.1597,0.1622,0.1652,0.1735,0.1813,0.1898,0.2001,0.2079,0.2118,0.2176,0.2242,0.225,0.2274,0.2277,0.226,0.2334,0.2307,0.2286,0.2244,0.2316,0.2315,0.2327,0.2161,0.2159,0.2158,0.2156,0,0,0.1547,0.1656,0.1667,0.1712,0.1851,0.1922,0.2038,0.216,0.2214,0.2301,0.2357,0.2407,0.2405,0.2407,0.2393,0.2425,0.2509,0.2394,0.2394,0.2413,0.2589,0.2474,0.2474,0.2514,0.2517,0.2519,0.2554,0,0.1581,0.1667,0.1728,0.1842,0.1901,0.2006,0.21,0.2216,0.2296,0.2375,0.2414,0.2455,0.2459,0.2455,0.2509,0.2505,0.2545,0.25,0.2506,0.2506,0.2405,0.2487,0.2334,0.2345,0.2565,0.2567,0.2568,0,0.1612,0.1663,0.1746,0.1867,0.1901,0.1979,0.2116,0.222,0.2356,0.2405,0.2482,0.2514,0.2588,0.2561,0.2649,0.2624,0.2627,0.2622,0.2623,0.2486,0.2413,0.2308,0.2356,0.2586,0.2585,0.2583,0.2582,0,0.1555,0.1681,0.173,0.1776,0.1928,0.1974,0.2063,0.2205,0.2266,0.241,0.2433,0.2566,0.2572,0.2659,0.2679,0.2674,0.2747,0.273,0.2634,0.2624,0.2479,0.2451,0.2799,0.2799,0.2799,0.2799,0.2799,0,0.1561,0.1612,0.1694,0.1728,0.1794,0.1911,0.1989,0.2108,0.2218,0.2281,0.242,0.2458,0.2596,0.2656,0.2708,0.2705,0.2781,0.2664,0.264,0.2508,0.2484,0.2675,0.266,0.28,0.28,0.28,0.28,0,0.1517,0.1569,0.1633,0.174,0.1767,0.1811,0.1919,0.1985,0.209,0.2171,0.2205,0.2363,0.2446,0.2559,0.2657,0.2677,0.2718,0.269,0.2509,0.2463,0.2563,0.2554,0.2612,0.2608,0.2605,0.2603,0.2601,0,0.1519,0.1531,0.1602,0.1628,0.1673,0.1735,0.1788,0.1908,0.1973,0.2102,0.2134,0.2222,0.2312,0.2415,0.2469,0.2546,0.261,0.2415,0.2379,0.258,0.2552,0.2546,0.2541,0.2232,0.2227,0.2223,0.222,0,0.1529,0.1525,0.1573,0.1593,0.1627,0.167,0.1746,0.1757,0.1903,0.1958,0.2052,0.2118,0.2191,0.2212,0.227,0.2293,0.2405,0.233,0.2616,0.2287,0.2221,0.2192,0.22,0.2184,0.2187,0.219,0.2192,0.2193,0.1548,0.1548,0.1578,0.1597,0.1619,0.1632,0.1641,0.1719,0.1777,0.1866,0.1948,0.1995,0.2042,0.2055,0.2022,0.1996,0.2151,0.2116,0.213,0.2148,0.2082,0.2013,0.1923,0.1925,0.1927,0.1929,0.193,0,0.16,0.1587,0.1596,0.1604,0.1591,0.1616,0.1645,0.164,0.1682,0.1772,0.1843,0.1737,0.175,0.177,0.1687,0.17,0.17,0.1634,0.1646,0.1683,0.1716,0.1629,0.135,0.1348,0.1346,0.1344,0,0,0.1646,0.1642,0.161,0.1583,0.1576,0.1538,0.1536,0.1531,0.1569,0.1576,0.159,0.1734,0.1771,0.1558,0.1531,0.1429,0.1542,0.1373,0.185,0.1905,0.1935,0.2015,0.1925,0,0,0,0,0]},{"header":{"parameterUnit":"m.s-1","parameterCategory":2,"la1":30.2991,"la2":30.254,"lo1":-89.0895,"lo2":-89.0444,"dy":0.0017,"dx":0.0017,"nx":28,"ny":28,"refTime":"2024-07-09T03:00:00:Z","depth":"2","parameterNumber":3,"parameterNumberName":"V-component_of_CURRENTS"},"data":[0,0,0,0,0,0,0,0,0,0,0,0,0,0,0,0,0,0,0,0,0,0,0,0,0,0,0,0,0,0,0,0,0,0,0,0,0,0,0,0,0,0,0,0,0,0,0,0,0,0,0,0,0,0,0,0,0,0,0.0059,0.0058,0,-0.0076,-0.0078,-0.008,-0.0144,-0.0144,-0.0143,-0.0143,-0.0279,-0.0283,-0.0287,0,0,0,0,0,0,0,0,0,0,0,0,0,0.0159,0.0158,0.0059,0.0058,0.0057,-0.0076,-0.0078,-0.008,-0.0144,-0.0144,-0.0143,-0.0142,-0.0277,-0.0282,-0.0287,0,0,0,0,0,0,0,0,0,0,0,0,0,0.0075,0.0157,0.006,0.0012,0.0007,-0.0075,-0.0078,-0.0081,-0.0144,-0.0144,-0.0143,-0.0142,-0.0276,-0.0282,-0.0288,-0.0341,0,0,-0.0307,-0.0309,0,0,0,0,0,0,0,0,0.008,0.0071,0.0021,0.0016,0.001,-0.0088,-0.0093,-0.0166,-0.0145,-0.0092,-0.0143,-0.0142,-0.0213,-0.0224,-0.0258,-0.0347,-0.0353,-0.0307,-0.0311,-0.0313,-0.0315,0,0,0,0,0,0,0,0.0086,0.0076,0.0001,0.0019,0.0013,-0.0037,-0.0048,-0.0108,-0.0158,-0.0096,-0.01,-0.0108,-0.0216,-0.0252,-0.0261,-0.0355,-0.0307,-0.0312,-0.0316,-0.0319,-0.0486,-0.0487,0,0,0,0,0,0,0.0116,0.0081,0.0005,-0.0003,0.0053,-0.0039,-0.0051,-0.0061,-0.0158,-0.0171,-0.0108,-0.011,-0.0242,-0.0254,-0.0266,-0.0322,-0.0313,-0.0319,-0.0323,-0.0486,-0.0487,-0.0487,0,0,0,0,0,0,0.0119,0.0111,0.0011,0.004,0.0025,-0.004,-0.0052,-0.0064,-0.01,-0.0166,-0.018,-0.013,-0.0241,-0.0258,-0.0324,-0.0328,-0.0322,-0.0327,-0.0485,-0.0486,-0.0487,-0.0442,0,0,0,0,0,0,0.0122,0.0112,0.0109,0.0042,0.0025,-0.0043,-0.0053,-0.0067,-0.0103,-0.0108,-0.0189,-0.0201,-0.0242,-0.0315,-0.033,-0.0336,-0.0332,-0.0484,-0.0485,-0.0487,-0.0442,-0.0441,-0.044,0,0,0,0,0,0.0126,0.0123,0.0109,0.01,0.0024,-0.0043,-0.0059,-0.0105,-0.0105,-0.0132,-0.018,-0.0199,-0.0334,-0.0321,-0.0339,-0.0347,-0.0483,-0.0485,-0.0487,-0.0443,-0.0442,-0.044,0,0,0,0,0,0,0.0157,0.0114,0.0098,0.008,0.0021,-0.0052,-0.0071,-0.0104,-0.0167,-0.0161,-0.022,-0.0238,-0.0298,-0.0332,-0.0315,-0.04,-0.0408,-0.0413,-0.0368,-0.0368,-0.0367,-0.0313,-0.0337,0,0,0,0,0,0.0166,0.0157,0.0094,0.0078,0.0058,-0.0007,-0.0038,-0.0072,-0.013,-0.0156,-0.021,-0.0263,-0.0322,-0.035,-0.041,-0.046,-0.0463,-0.0474,-0.0473,-0.0472,-0.0442,-0.0461,-0.0457,-0.0493,-0.0493,-0.0493,0,0,0.0174,0.015,0.0144,0.0085,0.0045,0.0018,-0.0025,-0.0068,-0.0096,-0.0161,-0.021,-0.027,-0.0338,-0.0395,-0.0422,-0.042,-0.0467,-0.0474,-0.0473,-0.0442,-0.0462,-0.0458,-0.0454,-0.0494,-0.0494,-0.0494,0,0,0.0193,0.0166,0.0168,0.0131,0.0079,0.0033,0.0025,-0.005,-0.009,-0.0155,-0.02,-0.0254,-0.0351,-0.0391,-0.0425,-0.0454,-0.0468,-0.0479,-0.0425,-0.0445,-0.0441,-0.0438,-0.0441,-0.0438,-0.047,-0.047,-0.047,0,0.0203,0.0203,0.0151,0.0146,0.0136,0.005,0.005,-0.0017,-0.0107,-0.0124,-0.016,-0.0276,-0.0343,-0.0387,-0.0401,-0.0448,-0.0454,-0.0423,-0.044,-0.0437,-0.0434,-0.0438,-0.0436,-0.0468,-0.0468,-0.0469,-0.0469,0,0.023,0.0227,0.0226,0.0202,0.0173,0.0153,0.0079,0.0034,-0.0017,-0.0072,-0.014,-0.0239,-0.0289,-0.0336,-0.0383,-0.0399,-0.0408,-0.0441,-0.0432,-0.0427,-0.0433,-0.0431,-0.0465,-0.0466,-0.0467,-0.0467,0,0,0.0256,0.0249,0.0249,0.0265,0.0211,0.0192,0.0153,0.0098,0.0101,-0.0018,-0.0022,-0.0152,-0.019,-0.0229,-0.0301,-0.0328,-0.0336,-0.0367,-0.0369,-0.0351,-0.0361,-0.0361,-0.0359,-0.037,-0.037,-0.0369,-0.0374,0,0.0292,0.0319,0.0302,0.0323,0.0333,0.0277,0.0262,0.0205,0.0139,0.0102,-0.0013,-0.0056,-0.0158,-0.0172,-0.0223,-0.031,-0.0328,-0.033,-0.0385,-0.0386,-0.0371,-0.0356,-0.0335,-0.0336,-0.0372,-0.0372,-0.0372,0,0.0325,0.0344,0.0387,0.0417,0.0421,0.0422,0.0421,0.039,0.0312,0.0264,0.0194,0.0108,0.0028,-0.0052,-0.0176,-0.0172,-0.0246,-0.0317,-0.0319,-0.0324,-0.0381,-0.035,-0.0332,-0.0368,-0.0369,-0.0369,-0.0369,0,0.038,0.0406,0.0455,0.046,0.0468,0.0493,0.0493,0.045,0.0443,0.0377,0.0371,0.0252,0.0202,0.0082,-0.0092,-0.012,-0.0215,-0.0273,-0.0337,-0.0338,-0.033,-0.0331,-0.0322,-0.0322,-0.0322,-0.0322,-0.0322,0,0.0428,0.0464,0.0491,0.0516,0.0584,0.0576,0.0632,0.0604,0.0587,0.0594,0.0469,0.0448,0.0235,0.0133,-0.0025,-0.0172,-0.0162,-0.0304,-0.0333,-0.0317,-0.0316,-0.0354,-0.0358,-0.0323,-0.0323,-0.0322,-0.0322,0,0.0472,0.0487,0.0542,0.0587,0.0609,0.0657,0.0712,0.0743,0.0727,0.0733,0.0722,0.0601,0.0471,0.0267,0.0079,-0.0066,-0.0215,-0.0263,-0.0223,-0.0247,-0.0338,-0.034,-0.032,-0.032,-0.032,-0.032,-0.032,0,0.0492,0.0526,0.0595,0.0637,0.0661,0.0731,0.0777,0.0792,0.0826,0.0818,0.0827,0.0728,0.0639,0.037,0.0112,-0.0121,-0.0178,-0.0237,-0.0292,-0.0304,-0.0335,-0.0337,-0.0338,-0.027,-0.027,-0.0269,-0.0269,0,0.053,0.0556,0.0607,0.0695,0.0757,0.083,0.0903,0.0953,0.0971,0.0989,0.0994,0.0941,0.0687,0.0441,0.0136,-0.0029,-0.0205,-0.0235,-0.0249,-0.0274,-0.0257,-0.0288,-0.0291,-0.0265,-0.0266,-0.0266,-0.0266,-0.0266,0.0553,0.0598,0.067,0.0756,0.0832,0.0927,0.0997,0.1067,0.114,0.1181,0.1121,0.1046,0.0779,0.0382,0.0111,-0.0165,-0.0166,-0.0271,-0.0272,-0.0273,-0.0267,-0.0251,-0.0256,-0.0256,-0.0256,-0.0256,-0.0256,0,0.0577,0.064,0.0725,0.083,0.0921,0.0957,0.1076,0.1144,0.1237,0.1266,0.1266,0.1005,0.0735,0.043,0.0024,-0.0214,-0.0247,-0.0287,-0.0285,-0.0286,-0.0287,-0.0283,-0.0275,-0.0276,-0.0277,-0.0277,0,0,0.0592,0.0678,0.0731,0.0885,0.0966,0.1087,0.1162,0.1254,0.1312,0.1347,0.1304,0.1211,0.0829,0.0534,0.0198,-0.0037,-0.0099,-0.0078,-0.0035,0.0009,0.0011,-0.0249,-0.0239,0,0,0,0,0]}],[{"header":{"parameterUnit":"m.s-1","parameterCategory":2,"la1":30.2991,"la2":30.254,"lo1":-89.0895,"lo2":-89.0444,"dy":0.0017,"dx":0.0017,"nx":28,"ny":28,"refTime":"2024-07-09T03:00:00:Z","depth":"4","parameterNumber":2,"parameterNumberName":"U-component_of_CURRENTS"},"data":[0,0,0,0,0,0,0,0,0,0,0,0,0,0,0,0,0,0,0,0,0,0,0,0,0,0,0,0,0,0,0,0,0,0,0,0,0,0,0,0,0,0,0,0,0,0,0,0,0,0,0,0,0,0,0,0,0,0,0.082,0.0818,0,0.0504,0.05,0.0496,0.0325,0.0325,0.0325,0.0325,0.0236,0.0233,0.0231,0,0,0,0,0,0,0,0,0,0,0,0,0,0.09,0.0902,0.0821,0.0817,0.0814,0.0505,0.05,0.0495,0.0325,0.0325,0.0325,0.0325,0.0237,0.0234,0.0231,0,0,0,0,0,0,0,0,0,0,0,0,0,0.0748,0.0902,0.0821,0.0697,0.0683,0.0506,0.05,0.0494,0.0325,0.0325,0.0325,0.0325,0.0238,0.0234,0.023,0.02,0,0,0.0218,0.0217,0,0,0,0,0,0,0,0,0.0757,0.0745,0.0718,0.0705,0.0689,0.046,0.0495,0.0409,0.0324,0.0453,0.0325,0.0326,0.0336,0.0324,0.0251,0.0196,0.0192,0.0218,0.0216,0.0214,0.0213,0,0,0,0,0,0,0,0.0769,0.0755,0.0689,0.0715,0.0697,0.0528,0.0509,0.0475,0.0396,0.0442,0.0431,0.0406,0.0329,0.0255,0.0249,0.0191,0.0218,0.0215,0.0212,0.0211,0.0215,0.0218,0,0,0,0,0,0,0.0841,0.0768,0.0699,0.068,0.0732,0.0528,0.0507,0.0528,0.0391,0.037,0.0406,0.0399,0.0261,0.0253,0.0246,0.0326,0.0214,0.0211,0.0208,0.0213,0.0216,0.0219,0,0,0,0,0,0,0.0845,0.084,0.0712,0.0718,0.0691,0.053,0.0552,0.0522,0.0463,0.0362,0.0345,0.0382,0.0261,0.0251,0.0242,0.0318,0.0209,0.0205,0.021,0.0214,0.0217,0.0411,0,0,0,0,0,0,0.0849,0.0844,0.0879,0.0726,0.0694,0.0612,0.0552,0.0515,0.0449,0.0437,0.0337,0.0326,0.0261,0.0249,0.0239,0.0311,0.0202,0.0207,0.0212,0.0216,0.0402,0.0421,0.0437,0,0,0,0,0,0.0854,0.0885,0.0884,0.0874,0.0752,0.0612,0.0578,0.0457,0.0449,0.0409,0.0373,0.033,0.0271,0.0247,0.0235,0.0308,0.0205,0.021,0.0216,0.0394,0.0417,0.0437,0,0,0,0,0,0,0.0919,0.0867,0.0862,0.0877,0.0767,0.0586,0.0541,0.0479,0.0407,0.0422,0.0345,0.0331,0.0353,0.0301,0.0276,0.0322,0.0238,0.0241,0.0378,0.0399,0.0417,0.048,0.0199,0,0,0,0,0,0.0966,0.0991,0.0884,0.0893,0.0853,0.0714,0.0648,0.0572,0.0486,0.045,0.0391,0.036,0.0359,0.0357,0.0316,0.0338,0.0326,0.0381,0.0399,0.0415,0.0459,0.0505,0.0532,0.0236,0.0236,0.0236,0,0,0.0992,0.0969,0.098,0.091,0.0821,0.0753,0.0672,0.0583,0.0544,0.0464,0.0421,0.0411,0.0376,0.0396,0.0404,0.0368,0.0489,0.0422,0.0436,0.0472,0.0514,0.0543,0.0569,0.024,0.0239,0.0239,0,0,0.1012,0.1042,0.1045,0.097,0.0867,0.079,0.0785,0.0638,0.0594,0.0556,0.0524,0.0579,0.0502,0.0529,0.0533,0.0633,0.0576,0.061,0.0763,0.0808,0.0834,0.0856,0.0871,0.0893,0.0628,0.0629,0.0629,0,0.1039,0.105,0.1008,0.0965,0.0916,0.0828,0.0781,0.0719,0.0593,0.0607,0.0571,0.06,0.0584,0.0684,0.0735,0.0683,0.0674,0.0687,0.0836,0.0857,0.0877,0.0887,0.0909,0.0639,0.0637,0.0636,0.0635,0,0.1032,0.1038,0.1022,0.0981,0.092,0.0864,0.0788,0.0761,0.0742,0.0708,0.0782,0.078,0.0823,0.0836,0.0825,0.0978,0.0913,0.0847,0.079,0.092,0.092,0.094,0.0653,0.0649,0.0646,0.0644,0,0,0.1075,0.1035,0.1028,0.102,0.0931,0.0879,0.0867,0.0839,0.089,0.0853,0.0921,0.1009,0.1062,0.1076,0.109,0.1162,0.1314,0.1092,0.109,0.1124,0.1395,0.1247,0.1253,0.1266,0.127,0.1274,0.1337,0,0.1069,0.1051,0.1016,0.0985,0.0963,0.0911,0.0913,0.09,0.0918,0.0963,0.1043,0.1122,0.1132,0.1211,0.1292,0.1307,0.1376,0.1303,0.125,0.1249,0.1117,0.1275,0.1289,0.1351,0.1355,0.1358,0.1361,0,0.1044,0.1052,0.1041,0.1034,0.1021,0.1008,0.1051,0.1035,0.1103,0.1134,0.1259,0.1291,0.1465,0.1412,0.1562,0.1508,0.1497,0.1486,0.1486,0.1303,0.114,0.1193,0.1395,0.1393,0.139,0.1388,0.1386,0,0.1079,0.1054,0.1076,0.1057,0.104,0.1061,0.1069,0.112,0.1143,0.1281,0.134,0.1502,0.1581,0.1642,0.1659,0.1629,0.1737,0.1668,0.1517,0.1504,0.1528,0.1503,0.1757,0.1757,0.1757,0.1757,0.1756,0,0.1062,0.1069,0.1118,0.1114,0.1162,0.1139,0.1209,0.1241,0.1318,0.1378,0.1473,0.155,0.1643,0.1689,0.1704,0.1683,0.178,0.1598,0.1538,0.1601,0.1585,0.154,0.1514,0.1759,0.1758,0.1758,0.1758,0,0.104,0.1071,0.109,0.1141,0.1163,0.1198,0.1241,0.1299,0.1393,0.1468,0.1522,0.1614,0.1692,0.172,0.1783,0.1715,0.1719,0.1658,0.1735,0.1667,0.1447,0.143,0.1556,0.1551,0.1548,0.1545,0.1543,0,0.1021,0.104,0.111,0.1138,0.1158,0.122,0.1252,0.1326,0.1376,0.1492,0.1517,0.1614,0.166,0.1642,0.1679,0.168,0.1626,0.1615,0.157,0.1513,0.1441,0.1429,0.1417,0.1537,0.1536,0.1535,0.1534,0,0.0985,0.1025,0.1054,0.1124,0.1171,0.1201,0.1266,0.1294,0.1374,0.1469,0.1505,0.1523,0.1549,0.1575,0.1549,0.1545,0.1644,0.1579,0.1585,0.1543,0.1491,0.142,0.1413,0.1522,0.1524,0.1525,0.1526,0,0.0967,0.0983,0.1046,0.1086,0.1143,0.1165,0.1199,0.1243,0.1288,0.1407,0.1413,0.1481,0.1547,0.15,0.1503,0.1474,0.145,0.1402,0.1417,0.1431,0.1353,0.1267,0.123,0,0,0,0,0,0.094,0.0957,0.1002,0.1041,0.109,0.1124,0.1191,0.1227,0.1312,0.1307,0.1355,0.1378,0.1367,0.1398,0.134,0.1431,0.145,0.1356,0.1402,0.1456,0.147,0.1385,0,0,0,0,0,0,0.0922,0.097,0.0987,0.0997,0.1013,0.1058,0.1097,0.1152,0.1152,0.124,0.1244,0.1301,0.1312,0.1393,0.1321,0.1325,0.1325,0.1392,0.1388,0.1448,0.1461,0.1472,0.1389,0,0,0,0,0]},{"header":{"parameterUnit":"m.s-1","parameterCategory":2,"la1":30.2991,"la2":30.254,"lo1":-89.0895,"lo2":-89.0444,"dy":0.0017,"dx":0.0017,"nx":28,"ny":28,"refTime":"2024-07-09T03:00:00:Z","depth":"4","parameterNumber":3,"parameterNumberName":"V-component_of_CURRENTS"},"data":[0,0,0,0,0,0,0,0,0,0,0,0,0,0,0,0,0,0,0,0,0,0,0,0,0,0,0,0,0,0,0,0,0,0,0,0,0,0,0,0,0,0,0,0,0,0,0,0,0,0,0,0,0,0,0,0,0,0,0.024,0.0242,0,0.0402,0.0404,0.0406,0.0523,0.0524,0.0525,0.0526,0.0553,0.0553,0.0552,0,0,0,0,0,0,0,0,0,0,0,0,0,0.0254,0.0252,0.024,0.0242,0.0244,0.0401,0.0404,0.0406,0.0523,0.0524,0.0525,0.0526,0.0553,0.0553,0.0552,0,0,0,0,0,0,0,0,0,0,0,0,0,0.0316,0.0252,0.024,0.032,0.0329,0.0401,0.0404,0.0407,0.0523,0.0524,0.0525,0.0526,0.0553,0.0553,0.0552,0.0524,0,0,0.0552,0.0552,0,0,0,0,0,0,0,0,0.0312,0.0315,0.0307,0.0315,0.0325,0.0443,0.0419,0.0439,0.0522,0.045,0.0526,0.0527,0.0502,0.0506,0.0537,0.0526,0.0527,0.0552,0.0552,0.0552,0.0552,0,0,0,0,0,0,0,0.0307,0.031,0.0305,0.0309,0.032,0.0425,0.0433,0.0425,0.0464,0.0457,0.0465,0.0481,0.0506,0.0537,0.0538,0.0527,0.0552,0.0552,0.0552,0.0552,0.0569,0.057,0,0,0,0,0,0,0.0271,0.0304,0.03,0.031,0.032,0.0422,0.0432,0.0404,0.0468,0.048,0.048,0.0486,0.0536,0.0538,0.0539,0.057,0.0552,0.0551,0.0551,0.0568,0.0569,0.057,0,0,0,0,0,0,0.027,0.0267,0.0293,0.0314,0.0324,0.0419,0.0389,0.0407,0.0466,0.0487,0.0497,0.0523,0.0537,0.0539,0.0565,0.0569,0.0551,0.0551,0.0568,0.0569,0.0569,0.0592,0,0,0,0,0,0,0.0269,0.0265,0.0246,0.0309,0.0321,0.0362,0.0388,0.0409,0.0471,0.0481,0.0525,0.0529,0.0539,0.0566,0.0565,0.0569,0.0551,0.0567,0.0568,0.0569,0.059,0.0593,0.0596,0,0,0,0,0,0.0268,0.0246,0.0243,0.0244,0.0285,0.0363,0.0381,0.0456,0.0472,0.051,0.0536,0.0529,0.0572,0.0566,0.0565,0.0569,0.0567,0.0568,0.0569,0.0589,0.0593,0.0596,0,0,0,0,0,0,0.0249,0.0257,0.0255,0.0235,0.0301,0.0384,0.0417,0.0463,0.0517,0.0521,0.0538,0.0544,0.0565,0.0564,0.0557,0.0578,0.0566,0.0567,0.0581,0.0585,0.0587,0.0582,0.0551,0,0,0,0,0,0.0225,0.021,0.0252,0.0245,0.0263,0.0337,0.0379,0.0433,0.0485,0.0514,0.055,0.0566,0.0565,0.0575,0.0584,0.0593,0.0539,0.0594,0.0597,0.0599,0.0595,0.0504,0.0497,0.0574,0.0574,0.0574,0,0,0.0221,0.0221,0.0216,0.0241,0.0285,0.0341,0.0368,0.0436,0.0488,0.0498,0.0573,0.0577,0.0569,0.059,0.0598,0.0594,0.0552,0.0601,0.0603,0.0597,0.0504,0.0496,0.0489,0.0575,0.0575,0.0575,0,0,0.0227,0.0193,0.0197,0.0243,0.0306,0.0356,0.0376,0.0467,0.0506,0.0569,0.0576,0.0586,0.0621,0.0614,0.0607,0.0623,0.0567,0.063,0.0641,0.0554,0.0546,0.0538,0.0464,0.0449,0.0634,0.0634,0.0634,0,0.0224,0.0218,0.0224,0.0256,0.0301,0.036,0.0414,0.0458,0.056,0.0569,0.0597,0.0621,0.0625,0.0605,0.0627,0.0627,0.0571,0.0629,0.0554,0.0545,0.0537,0.0462,0.0446,0.0635,0.0635,0.0635,0.0635,0,0.0255,0.0255,0.0267,0.031,0.0364,0.0421,0.0477,0.0526,0.0572,0.0613,0.0626,0.0636,0.0643,0.0647,0.0648,0.0597,0.0575,0.0562,0.0539,0.053,0.0453,0.0435,0.0637,0.0637,0.0636,0.0636,0,0,0.0239,0.0277,0.0285,0.0309,0.0397,0.0447,0.0498,0.0556,0.0566,0.0638,0.0635,0.0657,0.0655,0.0646,0.0637,0.058,0.0485,0.0557,0.0552,0.0473,0.029,0.0312,0.0295,0.0451,0.0448,0.0446,0.026,0,0.027,0.0321,0.0343,0.0421,0.0458,0.0504,0.0545,0.0597,0.0627,0.0636,0.0615,0.0617,0.0652,0.0641,0.0593,0.0505,0.0439,0.0536,0.032,0.0314,0.0325,0.0276,0.0437,0.0247,0.0243,0.024,0.0238,0,0.0308,0.0333,0.0402,0.0449,0.0466,0.0525,0.0575,0.0616,0.0614,0.0623,0.0616,0.0599,0.0547,0.0561,0.0413,0.0471,0.0388,0.0321,0.0312,0.0311,0.0304,0.0258,0.0205,0.0208,0.021,0.0212,0.0214,0,0.0321,0.0376,0.0427,0.0456,0.0523,0.0548,0.0588,0.0617,0.0637,0.0602,0.0603,0.0537,0.0504,0.0389,0.0308,0.0333,0.0121,0.0125,0.0063,0.0064,0.0089,0.0099,-0.0011,-0.0011,-0.001,-0.001,-0.0009,0,0.0355,0.039,0.0432,0.0466,0.0518,0.0555,0.0602,0.0614,0.0619,0.0636,0.0597,0.0584,0.0458,0.0352,0.0257,0.0117,0.0074,0.0046,0.0009,0.0106,0.012,0.0076,0.0088,-0.0017,-0.0015,-0.0014,-0.0012,0,0.0371,0.04,0.0453,0.0508,0.0533,0.0571,0.0642,0.0658,0.0658,0.0667,0.0655,0.0589,0.0452,0.0324,0.0116,0.0063,-0.0092,-0.0133,-0.0019,-0.0044,-0.0083,-0.0067,-0.0251,-0.0252,-0.0253,-0.0253,-0.0254,0,0.0378,0.0408,0.0486,0.0524,0.0556,0.0616,0.0659,0.0687,0.0712,0.069,0.0686,0.0561,0.0508,0.0229,0.0092,-0.0137,-0.0137,-0.0229,-0.0149,-0.0095,-0.0113,-0.0095,-0.0079,-0.0255,-0.0255,-0.0256,-0.0256,0,0.0384,0.0419,0.0466,0.0546,0.0605,0.0668,0.0726,0.0748,0.0768,0.0765,0.0707,0.058,0.0423,0.0233,0.0057,-0.0089,-0.0182,-0.0238,-0.0236,-0.0162,-0.0102,-0.0115,-0.0098,-0.0259,-0.0258,-0.0258,-0.0258,0,0.0383,0.0418,0.0486,0.056,0.0633,0.0695,0.0731,0.0756,0.0778,0.0758,0.0733,0.0576,0.0484,0.0256,0.0098,-0.0054,-0.0078,-0.0111,-0.0116,-0.0115,0.0004,0.0105,-0.0042,0,0,0,0,0,0.0368,0.0417,0.0488,0.0573,0.0648,0.0697,0.0763,0.0789,0.0811,0.0777,0.0761,0.0622,0.0391,0.0287,0.0135,0.008,-0.0111,-0.0101,-0.0153,-0.0274,-0.0271,-0.0149,0,0,0,0,0,0,0.0359,0.0427,0.0482,0.0571,0.0631,0.0713,0.076,0.0777,0.0764,0.076,0.0636,0.0591,0.0359,0.0472,0.0132,0.0087,0.0036,-0.0207,-0.021,-0.0276,-0.0273,-0.027,-0.0144,0,0,0,0,0]}]]